Simultaneous Nadir Overpasses (SNOs) Predictions

Prediction of SNOs between GOES-17 and METOP-A Satellite Orbit:

Table of predicted SNOs for the next 14.0 days since TLE Epoch: 12/4/2021
Index Date Time (GOES-17) GOES-17 Lat,Lon METOP-A Lat,Lon Distance(km) Time Diff (sec)
1 12/04/2021 04:54:12 0.04,-137.20 0.38,-135.79 160.87 80
2 12/04/2021 17:11:48 -0.04,-137.20 0.59,-140.02 321.50 80
3 12/07/2021 04:58:54 0.03,-137.18 0.26,-136.13 118.72 80
4 12/07/2021 17:13:46 -0.03,-137.18 0.68,-140.36 362.37 80
5 12/10/2021 05:00:56 0.02,-137.15 0.18,-136.49 75.62 80
6 12/10/2021 17:15:44 -0.02,-137.15 0.75,-140.69 403.21 80
7 12/12/2021 16:47:24 -0.02,-137.13 -0.88,-133.09 459.69 80
8 12/13/2021 05:02:59 0.02,-137.12 0.08,-136.84 31.97 80
9 12/13/2021 17:17:40 -0.02,-137.12 0.80,-141.02 443.88 80
10 12/15/2021 16:49:20 -0.01,-137.09 -0.83,-133.41 418.81 80
11 12/16/2021 05:02:21 0.01,-137.08 -0.03,-137.18 13.00 80
12 12/16/2021 17:19:35 -0.01,-137.07 0.89,-141.34 485.12 80
